Location: Unspecified
(0.0000°N, 0.0000°E)
Time: 10:20:20
(UTC+00:00)

Vanguard 3 - Pass Details

Date: 14 October 2022
Orbit: 509 x 3255 km, 33.3° (Epoch: 29 November)

Event Time Altitude Azimuth Distance (km) Brightness Sun altitude
Rises 20:11:02 0° 224° (SW) 7,098 12.6 -35.8°
Reaches altitude 10° 20:18:00 10° 210° (SSW) 6,192 12.0 -37.5°
Maximum altitude 20:31:31 22° 166° (SSE) 5,014 11.0 -40.9°
Enters shadow 20:36:40 19° 146° (SE) 4,950 10.9 -42.1°
